Live-Position
3D-Globus wird geladen...
Über Starlink 11502
Group: 3 satellites
Beschreibung wird geladen...
Nächste Überflüge
Passes for default location (London). Set your location on the main map for personalized predictions.
Höhenverlauf
Loading altitude history...
No altitude history available
Zweizeiliger Elementsatz
1 62474U 24254N 26121.91668981 .00071781 00000-0 55941-3 0 9991
2 62474 43.0008 262.0854 0001634 271.0200 70.1554 15.70783124 6010
Epoch: 1. Mai 2026 •
Age: 9 hours
Aktueller Status
Höhe 355.8 km
Geschwindigkeit 7.70 km/s
Subsatellitenpunkt 7.26°N,
61.89°W
Startdatum 31. Dez. 2024
Alter 1.3 years
Typ internet
Startgruppe
Falcon 9 •
Group 12-6 •
20 satellites
Starlink 11518
62462
Starlink 11455 62463
Starlink 11178 62465
Starlink 11506 62466
Starlink 11486 62467
Starlink 11511 62468
Starlink 11505 62469
Starlink 11497 62470
Starlink 11477 62471
Starlink 11500 62472
Starlink 11464 62473
Starlink 32657 62475
Starlink 32734 62476
Starlink 32733 62477
Starlink 32707 62478
Starlink 32705 62479
Starlink 32743 62480
Starlink 32753 62481
Starlink 32699 62482
Technische Details
Klassifizierung Payload
Masse 960.00 kg
Trockenmasse 910.00 kg
Gesamtmasse 960.00 kg
Länge 0.30 m
Durchmesser 4.10 m
Spannweite 29.00 m
Form Box + pan
Hersteller SPXS
Bus-Typ Starlink V2MD
Phasenstatus In Orbit
Besitzer/Staat SPXS/US
Most Searched
Loading...